Location: Saint-Restitut
(44.3351°N, 4.7915°E)
Time: 19:29:46
(UTC+00:00)

FENGYUN 1C DEB - Visible Passes

Search period start: 27 February 2024 00:00
Search period end: 08 March 2024 00:00
Orbit: 839 x 898 km, 98.8° (Epoch: 26 February)

Date Brightness Start Highest point End Pass type
(mag) Time Alt. Az. Time Alt. Az. Time Alt. Az.
27 Feb ? 19:05:31 10° SSW 19:10:09 28° W 19:14:50 10° NW visible
28 Feb ? 05:47:27 10° NE 05:51:07 17° E 05:54:47 10° SE visible
28 Feb ? 18:58:38 10° SSW 19:03:27 32° W 19:08:20 10° NNW visible
29 Feb ? 05:41:10 10° NE 05:44:23 15° E 05:47:37 10° SE visible
29 Feb ? 18:51:47 10° SSW 18:56:46 36° W 19:01:49 10° NNW visible
01 Mar ? 05:35:01 10° ENE 05:37:39 13° E 05:40:18 10° ESE visible
01 Mar ? 18:44:57 10° SSW 18:50:04 41° W 18:55:16 10° NNW visible
02 Mar ? 05:29:06 10° ENE 05:30:55 11° E 05:32:44 10° ESE visible
02 Mar ? 18:38:11 10° S 18:43:24 47° W 18:48:42 10° NNW visible
03 Mar ? 18:31:24 10° S 18:36:43 54° W 18:42:07 10° NNW visible
04 Mar ? 18:24:40 10° S 18:30:03 62° WSW 18:35:32 10° NNW visible
05 Mar ? 18:17:58 10° S 18:23:23 70° WSW 18:28:55 10° NNW visible
06 Mar ? 18:11:17 10° S 18:16:44 79° WSW 18:22:17 10° NNW visible
06 Mar ? 19:57:48 10° W 19:58:41 10° W 19:59:35 10° WNW visible
07 Mar ? 18:04:37 10° SSE 18:10:05 89° WSW 18:15:39 10° NNW visible
07 Mar ? 19:49:48 10° WSW 19:51:56 12° W 19:54:05 10° WNW visible
